User: anonymous   Login
Location: San Bernardino
(34.1083°N, 117.2898°W)
Time: 19:25:26
(UTC+00:00)
Language:

ATLAS 2AS CENTAUR R/B - Orbit

View from above orbital plane
View from above orbital plane
View from above satellite
View from above satellite

Ground track
Ground track

The orbit data is extracted from the following two-line orbital elements,

1 28096U 03054B   25163.20835989 -.00000033  00000-0  96559-4 0  9993
2 28096  63.6797 249.1544 0089046 144.2495 216.4538 13.41035979 52806
Epoch (UTC): 12 June 2025 05:00:02
Eccentricity: 0.0089046
inclination: 63.6797°
perigee height: 1039 km
apogee height: 1172 km
right ascension of ascending node: 249.1544°
argument of perigee: 144.2495°
revolutions per day: 13.41035979
mean anomaly at epoch: 216.4538°
orbit number at epoch: 5280

The dashed part of the orbit path shows where the satellite is in the earth's shadow,  

DLR